Location: Bidwell Hollow
(37.7387°N, 90.1707°W)
Time: 02:19:10
(UTC+00:00)

Vanguard 3 - Pass Details

Date: 11 May 2026
Orbit: 507 x 3204 km, 33.3° (Epoch: 6 June)

Event Time Altitude Azimuth Distance (km) Brightness Sun altitude
Rises 01:33:16 0° 279° (W) 6,732 13.4 -6.8°
Reaches altitude 10° 01:38:23 10° 276° (W) 5,397 12.6 -7.7°
Maximum altitude 01:52:26 52° 206° (SSW) 2,145 9.2 -10.1°
Enters shadow 01:59:55 13° 134° (SE) 3,040 9.4 -11.3°
Drops below altitude 10° 02:00:33 10° 132° (SE) 3,214 - -11.4°
Sets 02:02:51 0° 127° (SE) 3,903 - -11.8°
